Time,TemperatureF,DewpointF,PressureIn,WindDirection,WindDirectionDegrees,WindSpeedMPH,WindSpeedGustMPH,Humidity,HourlyPrecipIn,Conditions,Clouds,dailyrainin,SoftwareType,DateUTC
2013-08-13 00:06:00,76.7,72.0,29.90,ESE,109,0.0,-999.0,85,-99.99,,,0.00,weatherlink.com 1.10,2013-08-13 05:06:00,
2013-08-13 00:21:00,76.5,72.0,29.89,ESE,110,0.0,-999.0,85,-99.99,,,0.00,weatherlink.com 1.10,2013-08-13 05:21:00,
2013-08-13 00:36:00,76.3,72.0,29.89,SE,130,0.0,-999.0,86,-99.99,,,0.00,weatherlink.com 1.10,2013-08-13 05:36:00,
2013-08-13 00:51:00,76.1,72.0,29.89,SE,135,0.0,-999.0,86,-99.99,,,0.00,weatherlink.com 1.10,2013-08-13 05:51:00,
2013-08-13 01:06:00,76.3,72.0,29.91,SE,135,0.0,-999.0,86,-99.99,,,0.00,weatherlink.com 1.10,2013-08-13 06:06:00,
2013-08-13 01:21:00,76.5,72.0,29.92,SE,136,0.0,-999.0,86,-99.99,,,0.02,weatherlink.com 1.10,2013-08-13 06:21:00,
2013-08-13 01:36:00,76.5,72.0,29.93,SW,225,4.0,-999.0,86,-99.99,,,0.04,weatherlink.com 1.10,2013-08-13 06:36:00,
2013-08-13 01:51:00,76.3,72.0,29.93,South,190,0.0,-999.0,87,-99.99,,,0.09,weatherlink.com 1.10,2013-08-13 06:51:00,
2013-08-13 02:06:00,76.0,72.0,29.92,SSW,198,0.0,-999.0,88,-99.99,,,0.10,weatherlink.com 1.10,2013-08-13 07:06:00,
2013-08-13 02:21:00,75.8,72.0,29.93,SSW,211,0.0,-999.0,88,-99.99,,,0.10,weatherlink.com 1.10,2013-08-13 07:21:00,
2013-08-13 02:36:00,75.8,72.0,29.93,SSW,204,0.0,-999.0,89,-99.99,,,0.14,weatherlink.com 1.10,2013-08-13 07:36:00,
2013-08-13 02:51:00,75.8,72.0,29.93,SSW,202,0.0,-999.0,89,-99.99,,,0.17,weatherlink.com 1.10,2013-08-13 07:51:00,
2013-08-13 03:06:00,75.6,72.0,29.93,SSW,202,0.0,-999.0,89,-99.99,,,0.17,weatherlink.com 1.10,2013-08-13 08:06:00,
2013-08-13 03:21:00,75.4,72.0,29.92,SSW,202,0.0,-999.0,89,-99.99,,,0.17,weatherlink.com 1.10,2013-08-13 08:21:00,
2013-08-13 03:36:00,75.4,72.0,29.91,South,185,0.0,-999.0,89,-99.99,,,0.17,weatherlink.com 1.10,2013-08-13 08:36:00,
2013-08-13 03:51:00,74.6,72.0,29.89,South,185,0.0,-999.0,90,-99.99,,,0.17,weatherlink.com 1.10,2013-08-13 08:51:00,
2013-08-13 04:06:00,74.6,72.0,29.89,South,185,0.0,-999.0,90,-99.99,,,0.17,weatherlink.com 1.10,2013-08-13 09:06:00,
2013-08-13 04:21:00,74.4,71.0,29.89,South,185,0.0,-999.0,90,-99.99,,,0.17,weatherlink.com 1.10,2013-08-13 09:21:00,
2013-08-13 04:36:00,73.9,71.0,29.89,South,185,0.0,-999.0,90,-99.99,,,0.17,weatherlink.com 1.10,2013-08-13 09:36:00,
2013-08-13 04:51:00,73.9,71.0,29.90,South,185,0.0,-999.0,90,-99.99,,,0.17,weatherlink.com 1.10,2013-08-13 09:51:00,
2013-08-13 05:06:00,73.7,71.0,29.91,South,186,0.0,-999.0,90,-99.99,,,0.17,weatherlink.com 1.10,2013-08-13 10:06:00,
2013-08-13 05:21:00,73.7,71.0,29.91,South,186,0.0,-999.0,90,-99.99,,,0.18,weatherlink.com 1.10,2013-08-13 10:21:00,
2013-08-13 05:36:00,73.3,70.0,29.92,WSW,258,0.0,-999.0,90,-99.99,,,0.18,weatherlink.com 1.10,2013-08-13 10:36:00,
2013-08-13 05:51:00,72.8,70.0,29.92,WSW,246,3.0,-999.0,91,-99.99,,,0.18,weatherlink.com 1.10,2013-08-13 10:51:00,
2013-08-13 06:06:00,72.0,69.0,29.93,South,189,0.0,-999.0,90,-99.99,,,0.18,weatherlink.com 1.10,2013-08-13 11:06:00,
2013-08-13 06:21:00,71.8,69.0,29.92,South,173,0.0,-999.0,90,-99.99,,,0.18,weatherlink.com 1.10,2013-08-13 11:21:00,
2013-08-13 06:36:00,71.6,69.0,29.92,South,173,0.0,-999.0,91,-99.99,,,0.18,weatherlink.com 1.10,2013-08-13 11:36:00,
2013-08-13 06:51:00,71.6,69.0,29.92,South,173,0.0,-999.0,91,-99.99,,,0.18,weatherlink.com 1.10,2013-08-13 11:51:00,
2013-08-13 07:06:00,71.6,69.0,29.93,South,172,0.0,-999.0,91,-99.99,,,0.18,weatherlink.com 1.10,2013-08-13 12:06:00,
2013-08-13 07:21:00,71.6,69.0,29.93,South,173,0.0,-999.0,91,-99.99,,,0.18,weatherlink.com 1.10,2013-08-13 12:21:00,
2013-08-13 07:36:00,71.8,69.0,29.93,South,172,0.0,-999.0,91,-99.99,,,0.18,weatherlink.com 1.10,2013-08-13 12:36:00,
2013-08-13 07:51:00,72.0,69.0,29.94,South,172,0.0,-999.0,90,-99.99,,,0.18,weatherlink.com 1.10,2013-08-13 12:51:00,
2013-08-13 08:06:00,72.5,70.0,29.93,South,172,0.0,-999.0,91,-99.99,,,0.18,weatherlink.com 1.10,2013-08-13 13:06:00,
2013-08-13 08:21:00,72.7,70.0,29.93,South,172,0.0,-999.0,90,-99.99,,,0.18,weatherlink.com 1.10,2013-08-13 13:21:00,
2013-08-13 08:36:00,73.0,70.0,29.94,South,171,0.0,-999.0,91,-99.99,,,0.18,weatherlink.com 1.10,2013-08-13 13:36:00,
2013-08-13 08:51:00,72.8,70.0,29.94,SSE,167,0.0,-999.0,90,-99.99,,,0.18,weatherlink.com 1.10,2013-08-13 13:51:00,
2013-08-13 09:06:00,73.0,70.0,29.95,SSE,156,0.0,-999.0,90,-99.99,,,0.18,weatherlink.com 1.10,2013-08-13 14:06:00,
2013-08-13 09:21:00,73.2,70.0,29.94,SSE,157,0.0,-999.0,90,-99.99,,,0.18,weatherlink.com 1.10,2013-08-13 14:21:00,
2013-08-13 09:36:00,73.7,70.0,29.94,South,181,0.0,-999.0,89,-99.99,,,0.18,weatherlink.com 1.10,2013-08-13 14:36:00,
2013-08-13 09:51:00,74.0,71.0,29.95,South,182,0.0,-999.0,89,-99.99,,,0.18,weatherlink.com 1.10,2013-08-13 14:51:00,
2013-08-13 10:06:00,74.9,71.0,29.95,South,182,0.0,-999.0,86,-99.99,,,0.18,weatherlink.com 1.10,2013-08-13 15:06:00,
2013-08-13 10:21:00,75.8,70.0,29.95,SSW,197,0.0,-999.0,83,-99.99,,,0.18,weatherlink.com 1.10,2013-08-13 15:21:00,
2013-08-13 10:36:00,77.2,70.0,29.95,SSW,197,0.0,-999.0,79,-99.99,,,0.18,weatherlink.com 1.10,2013-08-13 15:36:00,
2013-08-13 10:51:00,77.2,69.0,29.96,SSW,197,0.0,-999.0,76,-99.99,,,0.18,weatherlink.com 1.10,2013-08-13 15:51:00,
2013-08-13 11:06:00,78.8,70.0,29.96,SSW,197,0.0,-999.0,74,-99.99,,,0.18,weatherlink.com 1.10,2013-08-13 16:06:00,
2013-08-13 11:21:00,79.6,69.0,29.96,South,186,0.0,-999.0,70,-99.99,,,0.18,weatherlink.com 1.10,2013-08-13 16:21:00,
2013-08-13 11:36:00,79.9,69.0,29.96,South,180,0.0,-999.0,70,-99.99,,,0.18,weatherlink.com 1.10,2013-08-13 16:36:00,
2013-08-13 11:51:00,79.2,70.0,29.96,South,171,0.0,-999.0,73,-99.99,,,0.18,weatherlink.com 1.10,2013-08-13 16:51:00,
2013-08-13 12:06:00,78.8,70.0,29.96,SSE,161,0.0,-999.0,74,-99.99,,,0.18,weatherlink.com 1.10,2013-08-13 17:06:00,
2013-08-13 12:21:00,79.6,71.0,29.95,South,169,0.0,-999.0,75,-99.99,,,0.18,weatherlink.com 1.10,2013-08-13 17:21:00,
2013-08-13 12:36:00,79.8,70.0,29.95,South,171,0.0,-999.0,73,-99.99,,,0.18,weatherlink.com 1.10,2013-08-13 17:36:00,
2013-08-13 12:51:00,80.5,71.0,29.95,ESE,119,0.0,-999.0,72,-99.99,,,0.18,weatherlink.com 1.10,2013-08-13 17:51:00,
2013-08-13 13:06:00,81.1,70.0,29.94,SE,141,0.0,-999.0,70,-99.99,,,0.18,weatherlink.com 1.10,2013-08-13 18:06:00,
2013-08-13 13:21:00,81.4,70.0,29.94,East,94,0.0,-999.0,69,-99.99,,,0.18,weatherlink.com 1.10,2013-08-13 18:21:00,
2013-08-13 13:36:00,81.6,70.0,29.93,South,186,0.0,-999.0,68,-99.99,,,0.18,weatherlink.com 1.10,2013-08-13 18:36:00,
2013-08-13 13:51:00,83.0,69.0,29.93,South,180,0.0,-999.0,63,-99.99,,,0.18,weatherlink.com 1.10,2013-08-13 18:51:00,
2013-08-13 14:06:00,82.6,69.0,29.93,SSE,164,0.0,-999.0,64,-99.99,,,0.18,weatherlink.com 1.10,2013-08-13 19:06:00,
2013-08-13 14:21:00,83.4,70.0,29.93,SW,215,4.0,-999.0,65,-99.99,,,0.18,weatherlink.com 1.10,2013-08-13 19:21:00,
2013-08-13 14:36:00,83.2,71.0,29.92,SSW,209,0.0,-999.0,66,-99.99,,,0.18,weatherlink.com 1.10,2013-08-13 19:36:00,
2013-08-13 14:51:00,82.6,71.0,29.91,NNW,346,4.0,-999.0,69,-99.99,,,0.18,weatherlink.com 1.10,2013-08-13 19:51:00,
2013-08-13 15:06:00,77.0,70.0,29.93,NW,325,3.0,-999.0,78,-99.99,,,0.23,weatherlink.com 1.10,2013-08-13 20:06:00,
2013-08-13 15:21:00,73.7,68.0,29.95,North,11,7.0,-999.0,83,-99.99,,,0.48,weatherlink.com 1.10,2013-08-13 20:21:00,
2013-08-13 15:36:00,72.3,68.0,29.94,NNE,24,5.0,-999.0,86,-99.99,,,0.64,weatherlink.com 1.10,2013-08-13 20:36:00,
2013-08-13 15:51:00,71.3,67.0,29.95,NE,43,12.0,-999.0,87,-99.99,,,0.73,weatherlink.com 1.10,2013-08-13 20:51:00,
2013-08-13 16:06:00,70.9,68.0,29.94,NE,48,7.0,-999.0,89,-99.99,,,0.73,weatherlink.com 1.10,2013-08-13 21:06:00,
2013-08-13 16:21:00,71.6,68.0,29.92,ENE,65,2.0,-999.0,89,-99.99,,,0.73,weatherlink.com 1.10,2013-08-13 21:21:00,
2013-08-13 16:36:00,71.6,68.0,29.92,ENE,73,10.0,-999.0,89,-99.99,,,0.73,weatherlink.com 1.10,2013-08-13 21:36:00,
2013-08-13 16:51:00,72.0,69.0,29.92,East,84,6.0,-999.0,89,-99.99,,,0.73,weatherlink.com 1.10,2013-08-13 21:51:00,
2013-08-13 17:06:00,72.5,69.0,29.91,ENE,60,5.0,-999.0,89,-99.99,,,0.73,weatherlink.com 1.10,2013-08-13 22:06:00,
2013-08-13 17:21:00,74.9,70.0,29.91,ESE,109,4.0,-999.0,84,-99.99,,,0.73,weatherlink.com 1.10,2013-08-13 22:21:00,
2013-08-13 17:36:00,77.2,69.0,29.92,NE,49,2.0,-999.0,76,-99.99,,,0.73,weatherlink.com 1.10,2013-08-13 22:36:00,
2013-08-13 17:51:00,77.4,68.0,29.92,NE,53,0.0,-999.0,73,-99.99,,,0.73,weatherlink.com 1.10,2013-08-13 22:51:00,
2013-08-13 18:06:00,77.4,67.0,29.92,East,84,5.0,-999.0,71,-99.99,,,0.73,weatherlink.com 1.10,2013-08-13 23:06:00,
2013-08-13 18:21:00,77.6,68.0,29.93,NNE,22,0.0,-999.0,72,-99.99,,,0.73,weatherlink.com 1.10,2013-08-13 23:21:00,
2013-08-13 18:36:00,77.6,68.0,29.93,ENE,61,0.0,-999.0,71,-99.99,,,0.73,weatherlink.com 1.10,2013-08-13 23:36:00,
2013-08-13 18:51:00,77.7,67.0,29.93,NE,41,3.0,-999.0,70,-99.99,,,0.73,weatherlink.com 1.10,2013-08-13 23:51:00,
2013-08-13 19:06:00,77.0,67.0,29.93,NNE,27,3.0,-999.0,71,-99.99,,,0.73,weatherlink.com 1.10,2013-08-14 00:06:00,
2013-08-13 19:21:00,76.1,67.0,29.94,ENE,78,3.0,-999.0,73,-99.99,,,0.73,weatherlink.com 1.10,2013-08-14 00:21:00,
2013-08-13 19:36:00,75.6,67.0,29.94,NNE,24,3.0,-999.0,75,-99.99,,,0.73,weatherlink.com 1.10,2013-08-14 00:36:00,
2013-08-13 19:51:00,75.1,67.0,29.94,NNE,28,3.0,-999.0,77,-99.99,,,0.73,weatherlink.com 1.10,2013-08-14 00:51:00,
2013-08-13 20:06:00,74.7,67.0,29.95,NE,36,2.0,-999.0,77,-99.99,,,0.73,weatherlink.com 1.10,2013-08-14 01:06:00,
2013-08-13 20:21:00,74.6,67.0,29.95,NE,39,0.0,-999.0,78,-99.99,,,0.73,weatherlink.com 1.10,2013-08-14 01:21:00,
2013-08-13 20:36:00,74.6,67.0,29.95,NE,39,0.0,-999.0,78,-99.99,,,0.73,weatherlink.com 1.10,2013-08-14 01:36:00,
2013-08-13 20:51:00,74.4,68.0,29.95,NE,39,0.0,-999.0,79,-99.99,,,0.73,weatherlink.com 1.10,2013-08-14 01:51:00,
2013-08-13 21:06:00,74.2,67.0,29.97,NE,39,0.0,-999.0,79,-99.99,,,0.73,weatherlink.com 1.10,2013-08-14 02:06:00,
2013-08-13 21:21:00,74.2,68.0,29.97,NE,39,0.0,-999.0,80,-99.99,,,0.73,weatherlink.com 1.10,2013-08-14 02:21:00,
2013-08-13 21:36:00,74.0,68.0,29.98,NE,39,0.0,-999.0,80,-99.99,,,0.73,weatherlink.com 1.10,2013-08-14 02:36:00,
2013-08-13 21:51:00,73.7,68.0,29.97,NE,39,0.0,-999.0,81,-99.99,,,0.73,weatherlink.com 1.10,2013-08-14 02:51:00,
2013-08-13 22:06:00,73.5,68.0,29.98,NE,39,0.0,-999.0,82,-99.99,,,0.73,weatherlink.com 1.10,2013-08-14 03:06:00,
2013-08-13 22:21:00,73.5,68.0,29.98,NE,39,0.0,-999.0,82,-99.99,,,0.73,weatherlink.com 1.10,2013-08-14 03:21:00,
2013-08-13 22:36:00,73.2,68.0,29.97,NE,39,0.0,-999.0,83,-99.99,,,0.73,weatherlink.com 1.10,2013-08-14 03:36:00,
2013-08-13 22:51:00,73.0,68.0,29.96,NE,39,0.0,-999.0,83,-99.99,,,0.73,weatherlink.com 1.10,2013-08-14 03:51:00,
2013-08-13 23:06:00,72.8,67.0,29.95,NE,39,0.0,-999.0,83,-99.99,,,0.73,weatherlink.com 1.10,2013-08-14 04:06:00,
2013-08-13 23:21:00,72.8,68.0,29.96,NE,39,0.0,-999.0,84,-99.99,,,0.73,weatherlink.com 1.10,2013-08-14 04:21:00,
2013-08-13 23:36:00,73.0,68.0,29.97,NE,39,0.0,-999.0,84,-99.99,,,0.73,weatherlink.com 1.10,2013-08-14 04:36:00,
2013-08-13 23:51:00,72.8,68.0,29.98,NNE,19,2.0,-999.0,84,-99.99,,,0.73,weatherlink.com 1.10,2013-08-14 04:51:00,